Prox-1
1 44339U 19036A   25047.41833259  .00020252  00000-0  28282-2 0  9990
2 44339  23.9980  83.1718 0007658 216.3015 143.6962 14.76111265301254
SONATE
1 44400U 19038Q   25047.58009005  .00080695  00000-0  10259-2 0  9995
2 44400  97.7101  62.5929 0006926 316.9126  43.1586 15.59089715311803
Taurus 1
1 44530U 19059C   25047.79995278  .00012836  00000-0  25114-2 0  9999
2 44530  98.5916 182.1570 0009099  21.9319 338.2269 14.62948731287434
Duchifat 3
1 44854U 19089C   25047.21686059  .00051488  00000-0  15108-2 0  9990
2 44854  36.9500 349.6169 0009704 313.8432  46.1518 15.34126454285524
TO-108
1 44881U 19093C   25047.86221011  .00002169  00000-0  25932-3 0  9998
2 44881  97.8027 125.8534 0012801 238.5974 121.3989 14.85141509279344
FloripaSat 1
1 44885U 19093G   25047.75836313  .00010216  00000-0  90996-3 0  9991
2 44885  97.8203 135.2885 0010841 220.8368 139.2042 14.96181450279867
RS-44
1 44909U 19096E   25047.42685325  .00000027  00000-0  64838-4 0  9996
2 44909  82.5224 302.4800 0216966 199.9033 159.3508 12.79738352240219
UPMSat 2
1 46276U 20061E   25047.46362135  .00054981  00000-0  87990-3 0  9995
2 46276  97.2618 119.3057 0000073 276.1798  83.9447 15.52958181247829
SALSAT
1 46495U 20068K   25047.50036179  .00012961  00000-0  60521-3 0  9999
2 46495  97.8496  20.6063 0011882 183.1774 176.9386 15.19902415241331
CubeSX-Sirius-HSE
1 47951U 21022V   25047.89533932  .00098804  00000-0  15795-2 0  9991
2 47951  97.4331 315.2573 0007883  10.1398 350.0013 15.52782235216156
CubeSX-HSE
1 47952U 21022W   25047.81043521  .00090006  00000-0  14160-2 0  9995
2 47952  97.4334 315.3496 0007520   4.9700 355.1626 15.53263697216154
KSU-Cubesat
1 47954U 21022Y   25047.73177227  .00268922  00000-0  18829-2 0  9999
2 47954  97.4305 319.3875 0004601  41.7506 318.4108 15.73440707216124
GRBAlpha
1 47959U 21022AD  25047.83678028  .00092462  00000-0  14619-2 0  9997
2 47959  97.4318 315.5363 0007879   9.3465 350.7933 15.53113076214988
Orbicraft-Zorkiy
1 47960U 21022AE  25047.82200789  .00145331  00000-0  15194-2 0  9996
2 47960  97.4312 318.6253 0005471  18.3754 341.7702 15.63973867215846
TUBIN
1 48900U 21059X   25047.75656025  .00044858  00000-0  85658-3 0  9996
2 48900  97.6668 208.9327 0005144 294.5722  65.4992 15.47985042202511
LEDSAT
1 49069U 21073D   25047.78220809  .00051719  00000-0  11040-2 0  9996
2 49069  97.4027 125.9310 0012970 130.8144 229.4232 15.44619818193936
CUTE
1 49263U 21088D   25047.16433326  .00064475  00000-0  15417-2 0  9995
2 49263  97.4645 120.5137 0008323 295.0314  65.0068 15.41220797186929
TeikyoSat 4
1 49396U 21102B   25047.62749840  .00003494  00000-0  23829-3 0  9992
2 49396  97.4273  90.0883 0013524 153.8310 206.3604 15.06784419179530
Z-Sat
1 49399U 21102E   25047.84373475  .00008261  00000-0  47217-3 0  9990
2 49399  97.3978  92.7504 0019977 131.6755 228.6190 15.12768849179924
KOSEN 1
1 49402U 21102H   25047.70959669  .00011145  00000-0  55264-3 0  9991
2 49402  97.3889  95.2478 0018195 112.0365 248.2804 15.17750843180156
HO-113
1 50466U 21131B   25047.90348266  .00001312  00000-0  42572-3 0  9995
2 50466  98.5129 137.8343 0005211 112.1384 248.0358 14.40540484165225
IRIS-A
1 51044U 22002BN  25047.46303700  .00094057  00000-0  12407-2 0  9992
2 51044  97.3442 122.5038 0004096 231.2875 128.8015 15.58076136172077
Foresail-1
1 52766U 22057AL  25047.36539714  .00083736  00000-0  11254-2 0  9990
2 52766  97.5988 188.9793 0006455 321.8743  38.2055 15.57598038152098
SNUGLITE 2
1 52899U 22065F   25047.63919081  .00002820  00000-0  56358-3 0  9995
2 52899  98.1483 190.8728 0008555 106.6366 253.5776 14.62627436139979
IO-117
1 53106U 22080B   25042.50223640 -.00000003  00000-0  00000-0 0  9996
2 53106  70.1392 109.3763 0008154  50.6584 309.4797  6.42557620 60646
FO-118
1 54684U 22167C   25047.86725210  .00513497  00000-0  19447-2 0  9990
2 54684  97.6084 211.6283 0008966 306.3632  53.6810 15.86378676122159
SO-120
1 56992U 23084BU  25042.76759540  .17342116  26494-5  33638-3 0  9995
2 56992  97.5047 178.6720 0014759 276.3055  83.6566 16.46134597 93271
UmKA 1 (RS40S)
1 57172U 23091G   25047.88398050  .00010799  00000-0  61086-3 0  9996
2 57172  97.5759 103.9133 0015163   8.9976 351.1524 15.13147154 90429
CubeBel-2 (EU11S)
1 57175U 23091K   25047.90201457  .00016489  00000-0  86084-3 0  9993
2 57175  97.5756 104.4920 0013306  18.6928 341.4791 15.15922072 90465
VERONIKA
1 58261U 23174F   25047.76754929  .00067264  00000-0  14278-2 0  9995
2 58261  97.4277 129.4915 0007056  95.2704 264.9350 15.44778481 71136
KAFASAT
1 58317U 23174BP  25047.50151638  .00216220  00000-0  22016-2 0  9994
2 58317  97.4160 132.5340 0002648  27.3502 332.7896 15.64432255 71339
ENSO
1 58470U 23185J   25047.78447321  .00047939  00000-0  11230-2 0  9998
2 58470  97.3891 120.3801 0009168 127.6400 232.5681 15.41910632 67576
EIRSAT-1
1 58472U 23185L   25047.79881984  .00066536  00000-0  13585-2 0  9997
2 58472  97.3888 121.0830 0007962 127.9890 232.2080 15.45917936 67624
SONATE-2
1 59112U 24043Q   25047.32314203  .00026875  00000-0  92589-3 0  9991
2 59112  97.4975 176.8019 0012245 154.9377 205.2460 15.29926395 52987
MO-122
1 60209U 24125G   25047.09752377  .00027786  00000-0  94512-3 0  9993
2 60209  97.2938 260.3125 0020980 180.4423 179.6803 15.30190890 34565
GRBBeta
1 60237U 24128C   25047.55313600  .00006186  00000-0  49104-3 0  9998
2 60237  61.9921 113.1850 0040776  31.1714 329.1782 15.00873274 33227
Curium One
1 60242U 24128H   25047.53812842  .00010764  00000-0  81332-3 0  9990
2 60242  61.9824 112.8661 0041111  25.6890 334.6230 15.02166386 33239
ROBUSTA-3A
1 60243U 24128J   25047.64315075  .00011529  00000-0  87968-3 0  9990
2 60243  61.9889 112.9865 0039260  23.5114 336.7760 15.01801244 33246
CatSat
1 60246U 24125J   25047.52961894  .00016791  00000-0  61487-3 0  9997
2 60246  97.2722 261.0502 0046589 134.8488 225.6551 15.27046919 32716
HYPERVIEW-1G (RS66S)
1 61772U 24199AP  25047.91098722  .00029431  00000-0  10472-2 0  9999
2 61772  97.3719 277.3730 0014156 232.9593 127.0353 15.28829806 59701
AO-123
1 61781U 24199AY  25047.82242542  .00012335  00000-0  48393-3 0  9999
2 61781  97.3726 277.0457 0015240 234.5692 125.4124 15.25774437 59675
POEM 4 (BGS ARPIT)
1 62461U 24253C   25047.65477667  .00173838  00000-0  78237-3 0  9991
2 62461  55.2201  27.0131 0012446  59.5737 300.6541 15.83018691  7551
